Location: Holyhead Bay
(53.3667°N, 4.6667°W)
Time: 11:25:00
(UTC+00:00)

Cosmos 2360 Rocket - Pass Details

Date: 12 April 2021
Orbit: 833 x 845 km, 71.0° (Epoch: 08 May)

Event Time Altitude Azimuth Distance (km) Brightness Sun altitude
Rises 20:22:09 0° 327° (NNW) 3,418 6.6 -10.1°
Reaches altitude 10° 20:24:37 10° 326° (NW) 2,478 5.8 -10.4°
Maximum altitude 20:30:18 76° 242° (WSW) 873 2.4 -11.1°
Drops below altitude 10° 20:35:55 10° 157° (SSE) 2,455 4.1 -11.8°
Enters shadow 20:35:57 10° 157° (SSE) 2,469 4.1 -11.8°
